Time,TemperatureF,DewpointF,PressureIn,WindDirection,WindDirectionDegrees,WindSpeedMPH,WindSpeedGustMPH,Humidity,HourlyPrecipIn,Conditions,Clouds,dailyrainin,SoftwareType,DateUTC
2014-02-28 00:01:00,45.0,41.4,29.99,NE,44,0.0,0.0,87,0.00,,,0.00,Wunderground v.1.15,2014-02-28 05:01:00,
2014-02-28 00:02:00,45.0,41.4,29.99,NE,44,0.0,0.0,87,0.00,,,0.00,Wunderground v.1.15,2014-02-28 05:02:00,
2014-02-28 00:03:00,44.9,41.3,29.99,NE,44,0.0,0.0,87,0.00,,,0.00,Wunderground v.1.15,2014-02-28 05:03:00,
2014-02-28 00:05:00,44.8,41.2,29.99,NE,44,0.0,0.0,87,0.00,,,0.00,Wunderground v.1.15,2014-02-28 05:05:00,
2014-02-28 00:10:00,44.6,41.0,29.99,NE,44,0.0,0.0,87,0.00,,,0.00,Wunderground v.1.15,2014-02-28 05:10:00,
2014-02-28 00:11:00,44.6,41.0,29.99,NE,44,0.0,0.0,87,0.00,,,0.00,Wunderground v.1.15,2014-02-28 05:11:00,
2014-02-28 00:15:00,44.4,40.8,29.99,NE,44,0.0,0.0,87,0.00,,,0.00,Wunderground v.1.15,2014-02-28 05:15:00,
2014-02-28 00:20:00,44.1,40.5,29.99,NE,44,0.0,0.0,87,0.00,,,0.00,Wunderground v.1.15,2014-02-28 05:20:00,
2014-02-28 00:25:00,43.8,39.9,29.99,NE,44,0.0,0.0,86,0.00,,,0.00,Wunderground v.1.15,2014-02-28 05:25:00,
2014-02-28 00:30:00,43.5,39.6,29.99,NE,44,0.0,0.0,86,0.00,,,0.00,Wunderground v.1.15,2014-02-28 05:30:00,
2014-02-28 00:35:00,43.1,39.2,29.99,NE,44,0.0,0.0,86,0.00,,,0.00,Wunderground v.1.15,2014-02-28 05:35:00,
2014-02-28 00:40:00,42.8,38.9,29.99,NE,44,0.0,0.0,86,0.00,,,0.00,Wunderground v.1.15,2014-02-28 05:40:00,
2014-02-28 00:45:00,42.5,38.6,29.99,NE,44,0.0,0.0,86,0.00,,,0.00,Wunderground v.1.15,2014-02-28 05:45:00,
2014-02-28 00:51:00,42.2,38.6,29.99,NE,44,0.0,0.0,87,0.00,,,0.00,Wunderground v.1.15,2014-02-28 05:51:00,
2014-02-28 00:56:00,41.9,38.3,29.99,NE,44,0.0,0.0,87,0.00,,,0.00,Wunderground v.1.15,2014-02-28 05:56:00,
2014-02-28 01:01:00,41.7,38.1,29.99,NE,44,0.0,0.0,87,0.00,,,0.00,Wunderground v.1.15,2014-02-28 06:01:00,
2014-02-28 01:06:00,41.5,37.9,29.99,NE,44,0.0,0.0,87,0.00,,,0.00,Wunderground v.1.15,2014-02-28 06:06:00,
2014-02-28 01:11:00,41.3,37.7,30.00,NE,44,0.0,0.0,87,0.00,,,0.00,Wunderground v.1.15,2014-02-28 06:11:00,
2014-02-28 01:17:00,41.0,37.4,30.00,NE,44,0.0,0.0,87,0.00,,,0.00,Wunderground v.1.15,2014-02-28 06:17:00,
2014-02-28 01:22:00,40.8,37.2,30.00,NE,44,0.0,0.0,87,0.00,,,0.00,Wunderground v.1.15,2014-02-28 06:22:00,
2014-02-28 01:27:00,40.6,37.0,30.00,NE,44,0.0,0.0,87,0.00,,,0.00,Wunderground v.1.15,2014-02-28 06:27:00,
2014-02-28 01:32:00,40.4,36.8,29.99,NE,44,0.0,0.0,87,0.00,,,0.00,Wunderground v.1.15,2014-02-28 06:32:00,
2014-02-28 01:37:00,40.2,36.6,29.99,NE,44,0.0,0.0,87,0.00,,,0.00,Wunderground v.1.15,2014-02-28 06:37:00,
2014-02-28 01:43:00,39.9,36.6,29.99,NE,44,0.0,0.0,88,0.00,,,0.00,Wunderground v.1.15,2014-02-28 06:43:00,
2014-02-28 01:48:00,39.8,36.5,29.99,NE,44,0.0,0.0,88,0.00,,,0.00,Wunderground v.1.15,2014-02-28 06:48:00,
2014-02-28 01:53:00,39.6,36.3,29.99,NE,44,0.0,0.0,88,0.00,,,0.00,Wunderground v.1.15,2014-02-28 06:53:00,
2014-02-28 01:58:00,39.4,36.1,29.99,NE,44,0.0,0.0,88,0.00,,,0.00,Wunderground v.1.15,2014-02-28 06:58:00,
2014-02-28 02:03:00,39.2,36.2,29.99,NE,44,0.0,0.0,89,0.00,,,0.00,Wunderground v.1.15,2014-02-28 07:03:00,
2014-02-28 02:08:00,39.0,36.0,29.99,NE,44,0.0,0.0,89,0.00,,,0.00,Wunderground v.1.15,2014-02-28 07:08:00,
2014-02-28 02:13:00,38.8,35.8,29.99,NE,44,0.0,0.0,89,0.00,,,0.00,Wunderground v.1.15,2014-02-28 07:13:00,
2014-02-28 02:18:00,38.6,35.6,29.99,NE,44,0.0,0.0,89,0.00,,,0.00,Wunderground v.1.15,2014-02-28 07:18:00,
2014-02-28 02:23:00,38.4,35.4,29.99,NE,44,0.0,0.0,89,0.00,,,0.00,Wunderground v.1.15,2014-02-28 07:23:00,
2014-02-28 02:28:00,38.3,35.3,29.99,NE,44,0.0,0.0,89,0.00,,,0.00,Wunderground v.1.15,2014-02-28 07:28:00,
2014-02-28 02:33:00,38.1,35.1,29.99,NE,44,0.0,0.0,89,0.00,,,0.00,Wunderground v.1.15,2014-02-28 07:33:00,
2014-02-28 02:38:00,37.9,34.9,29.99,NE,44,0.0,0.0,89,0.00,,,0.00,Wunderground v.1.15,2014-02-28 07:38:00,
2014-02-28 02:43:00,37.8,35.1,29.99,NE,44,0.0,0.0,90,0.00,,,0.00,Wunderground v.1.15,2014-02-28 07:43:00,
2014-02-28 02:48:00,37.7,35.0,29.99,NE,44,0.0,0.0,90,0.00,,,0.00,Wunderground v.1.15,2014-02-28 07:48:00,
2014-02-28 02:53:00,37.5,34.8,29.99,NE,44,0.0,0.0,90,0.00,,,0.00,Wunderground v.1.15,2014-02-28 07:53:00,
2014-02-28 02:58:00,37.4,34.7,29.99,NE,44,0.0,0.0,90,0.00,,,0.00,Wunderground v.1.15,2014-02-28 07:58:00,
2014-02-28 03:03:00,37.2,34.5,29.99,NE,44,0.0,0.0,90,0.00,,,0.00,Wunderground v.1.15,2014-02-28 08:03:00,
2014-02-28 03:08:00,37.1,34.4,29.99,NE,44,0.0,0.0,90,0.00,,,0.00,Wunderground v.1.15,2014-02-28 08:08:00,
2014-02-28 03:13:00,37.0,34.3,29.99,NE,44,0.0,0.0,90,0.00,,,0.00,Wunderground v.1.15,2014-02-28 08:13:00,
2014-02-28 03:18:00,36.8,34.1,29.99,NE,44,0.0,0.0,90,0.00,,,0.00,Wunderground v.1.15,2014-02-28 08:18:00,
2014-02-28 03:23:00,36.7,34.0,29.99,NE,44,0.0,0.0,90,0.00,,,0.00,Wunderground v.1.15,2014-02-28 08:23:00,
2014-02-28 03:28:00,36.5,34.1,29.99,NE,44,0.0,0.0,91,0.00,,,0.00,Wunderground v.1.15,2014-02-28 08:28:00,
2014-02-28 03:33:00,36.4,34.0,29.99,NE,44,0.0,0.0,91,0.00,,,0.00,Wunderground v.1.15,2014-02-28 08:33:00,
2014-02-28 03:38:00,36.3,33.9,29.98,NE,44,0.0,0.0,91,0.00,,,0.00,Wunderground v.1.15,2014-02-28 08:38:00,
2014-02-28 03:43:00,36.2,33.8,29.98,NE,44,0.0,0.0,91,0.00,,,0.00,Wunderground v.1.15,2014-02-28 08:43:00,
2014-02-28 03:48:00,36.1,33.7,29.98,NE,44,0.0,0.0,91,0.00,,,0.00,Wunderground v.1.15,2014-02-28 08:48:00,
2014-02-28 03:53:00,36.0,33.6,29.99,NE,44,0.0,0.0,91,0.00,,,0.00,Wunderground v.1.15,2014-02-28 08:53:00,
2014-02-28 03:58:00,35.7,33.6,29.99,NE,44,0.0,0.0,92,0.00,,,0.00,Wunderground v.1.15,2014-02-28 08:58:00,
2014-02-28 04:03:00,35.6,33.5,29.99,NE,44,0.0,0.0,92,0.00,,,0.00,Wunderground v.1.15,2014-02-28 09:03:00,
2014-02-28 04:08:00,35.5,33.4,29.99,NE,44,0.0,0.0,92,0.00,,,0.00,Wunderground v.1.15,2014-02-28 09:08:00,
2014-02-28 04:13:00,35.4,33.3,30.00,NE,44,0.0,0.0,92,0.00,,,0.00,Wunderground v.1.15,2014-02-28 09:13:00,
2014-02-28 04:18:00,35.3,33.2,30.00,NE,44,0.0,0.0,92,0.00,,,0.00,Wunderground v.1.15,2014-02-28 09:18:00,
2014-02-28 04:23:00,35.2,33.1,29.99,NE,44,0.0,0.0,92,0.00,,,0.00,Wunderground v.1.15,2014-02-28 09:23:00,
2014-02-28 04:28:00,35.1,33.0,30.00,NE,44,0.0,0.0,92,0.00,,,0.00,Wunderground v.1.15,2014-02-28 09:28:00,
2014-02-28 04:33:00,35.0,32.9,30.00,NE,44,0.0,0.0,92,0.00,,,0.00,Wunderground v.1.15,2014-02-28 09:33:00,
2014-02-28 04:38:00,34.8,33.0,30.00,NE,44,0.0,0.0,93,0.00,,,0.00,Wunderground v.1.15,2014-02-28 09:38:00,
2014-02-28 04:43:00,34.8,33.0,30.00,NE,44,0.0,0.0,93,0.00,,,0.00,Wunderground v.1.15,2014-02-28 09:43:00,
2014-02-28 04:48:00,34.8,33.0,30.00,NE,44,0.0,0.0,93,0.00,,,0.00,Wunderground v.1.15,2014-02-28 09:48:00,
2014-02-28 04:53:00,34.7,32.9,30.00,NE,44,0.0,0.0,93,0.00,,,0.00,Wunderground v.1.15,2014-02-28 09:53:00,
2014-02-28 04:58:00,34.5,32.7,30.00,NE,44,0.0,0.0,93,0.00,,,0.00,Wunderground v.1.15,2014-02-28 09:58:00,
2014-02-28 05:03:00,34.4,32.6,30.00,NE,44,0.0,0.0,93,0.00,,,0.00,Wunderground v.1.15,2014-02-28 10:03:00,
2014-02-28 05:08:00,34.2,32.4,30.01,NE,44,0.0,0.0,93,0.00,,,0.00,Wunderground v.1.15,2014-02-28 10:08:00,
2014-02-28 05:13:00,34.0,32.2,30.01,NE,44,0.0,0.0,93,0.00,,,0.00,Wunderground v.1.15,2014-02-28 10:13:00,
2014-02-28 05:18:00,33.9,32.1,30.02,NE,44,0.0,0.0,93,0.00,,,0.00,Wunderground v.1.15,2014-02-28 10:18:00,
2014-02-28 05:23:00,33.7,31.9,30.02,NE,44,0.0,0.0,93,0.00,,,0.00,Wunderground v.1.15,2014-02-28 10:23:00,
2014-02-28 05:28:00,33.4,31.6,30.03,NE,44,0.0,0.0,93,0.00,,,0.00,Wunderground v.1.15,2014-02-28 10:28:00,
2014-02-28 05:33:00,33.2,31.4,30.03,NE,44,0.0,0.0,93,0.00,,,0.00,Wunderground v.1.15,2014-02-28 10:33:00,
2014-02-28 05:38:00,33.0,31.2,30.04,NE,44,0.0,0.0,93,0.00,,,0.00,Wunderground v.1.15,2014-02-28 10:38:00,
2014-02-28 05:43:00,32.9,31.4,30.04,NE,44,0.0,0.0,94,0.00,,,0.00,Wunderground v.1.15,2014-02-28 10:43:00,
2014-02-28 05:48:00,32.8,31.3,30.04,NE,44,0.0,0.0,94,0.00,,,0.00,Wunderground v.1.15,2014-02-28 10:48:00,
2014-02-28 05:53:00,32.8,31.3,30.05,NE,44,0.0,0.0,94,0.00,,,0.00,Wunderground v.1.15,2014-02-28 10:53:00,
2014-02-28 05:58:00,32.6,31.1,30.04,NE,44,0.0,0.0,94,0.00,,,0.00,Wunderground v.1.15,2014-02-28 10:58:00,
2014-02-28 06:03:00,32.5,31.0,30.05,NE,44,0.0,0.0,94,0.00,,,0.00,Wunderground v.1.15,2014-02-28 11:03:00,
2014-02-28 06:08:00,32.4,30.9,30.04,NE,44,0.0,0.0,94,0.00,,,0.00,Wunderground v.1.15,2014-02-28 11:08:00,
2014-02-28 06:13:00,32.3,30.8,30.05,NE,44,0.0,0.0,94,0.00,,,0.00,Wunderground v.1.15,2014-02-28 11:13:00,
2014-02-28 06:18:00,32.3,30.8,30.05,NE,44,0.0,0.0,94,0.00,,,0.00,Wunderground v.1.15,2014-02-28 11:18:00,
2014-02-28 06:23:00,32.2,30.7,30.04,NE,44,0.0,0.0,94,0.00,,,0.00,Wunderground v.1.15,2014-02-28 11:23:00,
2014-02-28 06:28:00,32.1,30.6,30.04,NE,44,0.0,0.0,94,0.00,,,0.00,Wunderground v.1.15,2014-02-28 11:28:00,
2014-02-28 06:33:00,32.3,30.8,30.04,NE,44,0.0,0.0,94,0.00,,,0.00,Wunderground v.1.15,2014-02-28 11:33:00,
2014-02-28 06:38:00,32.3,31.0,30.04,NE,44,0.0,0.0,95,0.00,,,0.00,Wunderground v.1.15,2014-02-28 11:38:00,
2014-02-28 06:43:00,32.3,31.0,30.05,NE,44,0.0,0.0,95,0.00,,,0.00,Wunderground v.1.15,2014-02-28 11:43:00,
2014-02-28 06:48:00,32.3,31.0,30.05,NE,44,0.0,0.0,95,0.00,,,0.00,Wunderground v.1.15,2014-02-28 11:48:00,
2014-02-28 06:53:00,32.3,31.0,30.05,NE,44,0.0,0.0,95,0.00,,,0.00,Wunderground v.1.15,2014-02-28 11:53:00,
2014-02-28 06:58:00,32.3,31.0,30.05,NE,44,0.0,0.0,95,0.00,,,0.00,Wunderground v.1.15,2014-02-28 11:58:00,
2014-02-28 07:03:00,32.2,30.9,30.06,NE,44,0.0,0.0,95,0.00,,,0.00,Wunderground v.1.15,2014-02-28 12:03:00,
2014-02-28 07:08:00,32.1,30.8,30.06,NE,44,0.0,0.0,95,0.00,,,0.00,Wunderground v.1.15,2014-02-28 12:08:00,
2014-02-28 07:13:00,32.1,30.8,30.05,NE,44,0.0,0.0,95,0.00,,,0.00,Wunderground v.1.15,2014-02-28 12:13:00,
2014-02-28 07:18:00,32.0,30.7,30.06,NE,44,0.0,0.0,95,0.00,,,0.00,Wunderground v.1.15,2014-02-28 12:18:00,
2014-02-28 07:23:00,31.9,30.6,30.06,NE,44,0.0,0.0,95,0.00,,,0.00,Wunderground v.1.15,2014-02-28 12:23:00,
2014-02-28 07:28:00,31.8,30.5,30.07,NE,44,0.0,0.0,95,0.00,,,0.00,Wunderground v.1.15,2014-02-28 12:28:00,
2014-02-28 07:33:00,31.7,30.4,30.07,NE,44,0.0,0.0,95,0.00,,,0.00,Wunderground v.1.15,2014-02-28 12:33:00,
2014-02-28 07:38:00,31.7,30.4,30.07,NNE,12,0.0,0.0,95,0.00,,,0.00,Wunderground v.1.15,2014-02-28 12:38:00,
2014-02-28 07:43:00,31.7,30.4,30.07,NNE,12,0.0,0.0,95,0.00,,,0.00,Wunderground v.1.15,2014-02-28 12:43:00,
2014-02-28 07:48:00,31.7,30.4,30.07,SW,230,0.0,0.0,95,0.00,,,0.00,Wunderground v.1.15,2014-02-28 12:48:00,
2014-02-28 07:53:00,31.9,30.6,30.07,NE,38,0.0,2.0,95,0.00,,,0.00,Wunderground v.1.15,2014-02-28 12:53:00,
2014-02-28 07:58:00,32.0,31.0,30.07,NE,38,0.0,2.0,96,0.00,,,0.00,Wunderground v.1.15,2014-02-28 12:58:00,
2014-02-28 08:03:00,34.4,33.4,30.08,NE,38,0.0,0.0,96,0.00,,,0.00,Wunderground v.1.15,2014-02-28 13:03:00,
2014-02-28 08:08:00,35.6,34.6,30.08,NE,38,0.0,0.0,96,0.00,,,0.00,Wunderground v.1.15,2014-02-28 13:08:00,
2014-02-28 08:13:00,36.6,35.8,30.08,NE,38,0.0,0.0,97,0.00,,,0.00,Wunderground v.1.15,2014-02-28 13:13:00,
2014-02-28 08:18:00,37.6,36.8,30.08,NE,38,3.0,4.0,97,0.00,,,0.00,Wunderground v.1.15,2014-02-28 13:18:00,
2014-02-28 08:23:00,38.6,37.8,30.08,NE,37,2.0,3.0,97,0.00,,,0.00,Wunderground v.1.15,2014-02-28 13:23:00,
2014-02-28 08:28:00,39.9,38.9,30.08,ENE,59,0.0,4.0,96,0.00,,,0.00,Wunderground v.1.15,2014-02-28 13:28:00,
2014-02-28 08:33:00,41.1,39.8,30.08,ENE,60,2.0,2.0,95,0.00,,,0.00,Wunderground v.1.15,2014-02-28 13:33:00,
2014-02-28 08:38:00,42.4,39.4,30.08,NNE,23,0.0,6.0,89,0.00,,,0.00,Wunderground v.1.15,2014-02-28 13:38:00,
2014-02-28 08:43:00,43.7,39.5,30.08,NE,42,2.0,4.0,85,0.00,,,0.00,Wunderground v.1.15,2014-02-28 13:43:00,
2014-02-28 08:48:00,44.7,38.6,30.08,North,355,2.0,5.0,79,0.00,,,0.00,Wunderground v.1.15,2014-02-28 13:48:00,
2014-02-28 08:53:00,45.6,38.5,30.09,NE,51,0.0,6.0,76,0.00,,,0.00,Wunderground v.1.15,2014-02-28 13:53:00,
2014-02-28 08:58:00,46.2,38.0,30.09,North,9,0.0,10.0,73,0.00,,,0.00,Wunderground v.1.15,2014-02-28 13:58:00,
2014-02-28 09:03:00,46.9,37.3,30.09,East,93,0.0,10.0,69,0.00,,,0.00,Wunderground v.1.15,2014-02-28 14:03:00,
2014-02-28 09:08:00,47.6,37.6,30.08,ENE,69,0.0,10.0,68,0.00,,,0.00,Wunderground v.1.15,2014-02-28 14:08:00,
2014-02-28 09:13:00,48.1,36.9,30.09,NNE,27,1.0,4.0,65,0.00,,,0.00,Wunderground v.1.15,2014-02-28 14:13:00,
2014-02-28 09:18:00,49.0,36.5,30.09,NNE,26,3.0,7.0,62,0.00,,,0.00,Wunderground v.1.15,2014-02-28 14:18:00,
2014-02-28 09:24:00,49.5,37.0,30.10,NNE,15,2.0,5.0,62,0.00,,,0.00,Wunderground v.1.15,2014-02-28 14:24:00,
2014-02-28 09:46:00,53.1,33.9,30.10,SE,140,1.0,1.0,48,0.00,,,0.00,Wunderground v.1.15,2014-02-28 14:46:00,
2014-02-28 09:51:00,53.8,32.4,30.09,NE,47,0.0,4.0,44,0.00,,,0.00,Wunderground v.1.15,2014-02-28 14:51:00,
2014-02-28 09:56:00,54.1,30.9,30.10,NE,49,2.0,7.0,41,0.00,,,0.00,Wunderground v.1.15,2014-02-28 14:56:00,
2014-02-28 10:01:00,54.2,29.8,30.10,NNE,22,3.0,7.0,39,0.00,,,0.00,Wunderground v.1.15,2014-02-28 15:01:00,
2014-02-28 10:06:00,54.7,30.8,30.10,ENE,69,2.0,7.0,40,0.00,,,0.00,Wunderground v.1.15,2014-02-28 15:06:00,
2014-02-28 10:11:00,55.5,30.9,30.10,SSE,151,1.0,3.0,39,0.00,,,0.00,Wunderground v.1.15,2014-02-28 15:11:00,
2014-02-28 10:16:00,55.5,32.2,30.10,NNW,334,1.0,7.0,41,0.00,,,0.00,Wunderground v.1.15,2014-02-28 15:16:00,
2014-02-28 10:21:00,56.0,31.4,30.10,East,82,1.0,7.0,39,0.00,,,0.00,Wunderground v.1.15,2014-02-28 15:21:00,
2014-02-28 10:26:00,56.4,32.4,30.10,SSE,156,1.0,8.0,40,0.00,,,0.00,Wunderground v.1.15,2014-02-28 15:26:00,
2014-02-28 10:31:00,56.7,32.6,30.10,East,93,1.0,8.0,40,0.00,,,0.00,Wunderground v.1.15,2014-02-28 15:31:00,